TimeEST,TemperatureF,Dew PointF,Humidity,Sea Level PressureIn,VisibilityMPH,Wind Direction,Wind SpeedMPH,Gust SpeedMPH,PrecipitationIn,Events,Conditions,WindDirDegrees,DateUTC
12:51 AM,28.0,24.1,85,30.28,10.0,Calm,Calm,-,N/A,,Mostly Cloudy,0,2012-11-20 05:51:00
1:51 AM,27.0,24.1,89,30.27,10.0,Calm,Calm,-,N/A,,Mostly Cloudy,0,2012-11-20 06:51:00
2:51 AM,25.0,21.9,88,30.26,10.0,Calm,Calm,-,N/A,,Scattered Clouds,0,2012-11-20 07:51:00
3:51 AM,25.0,23.0,92,30.25,10.0,Calm,Calm,-,N/A,,Scattered Clouds,0,2012-11-20 08:51:00
4:51 AM,24.1,21.9,91,30.25,10.0,Calm,Calm,-,N/A,,Scattered Clouds,0,2012-11-20 09:51:00
5:51 AM,24.1,21.9,91,30.25,10.0,Calm,Calm,-,N/A,,Mostly Cloudy,0,2012-11-20 10:51:00
6:51 AM,25.0,23.0,92,30.25,10.0,Calm,Calm,-,N/A,,Mostly Cloudy,0,2012-11-20 11:51:00
7:51 AM,28.9,25.0,85,30.25,10.0,Calm,Calm,-,N/A,,Overcast,0,2012-11-20 12:51:00
8:51 AM,30.9,28.0,89,30.25,10.0,Calm,Calm,-,N/A,,Overcast,0,2012-11-20 13:51:00
9:51 AM,34.0,28.9,82,30.24,10.0,NNW,3.5,-,N/A,,Overcast,330,2012-11-20 14:51:00
10:51 AM,37.9,28.9,70,30.23,10.0,NNW,3.5,-,N/A,,Mostly Cloudy,330,2012-11-20 15:51:00
11:51 AM,41.0,28.9,62,30.20,10.0,NNW,4.6,-,N/A,,Mostly Cloudy,340,2012-11-20 16:51:00
12:51 PM,45.0,28.9,53,30.18,10.0,NNE,4.6,-,N/A,,Mostly Cloudy,20,2012-11-20 17:51:00
1:51 PM,45.0,28.0,52,30.17,10.0,NNE,3.5,-,N/A,,Mostly Cloudy,30,2012-11-20 18:51:00
2:51 PM,45.0,28.0,52,30.17,10.0,NNW,3.5,-,N/A,,Overcast,340,2012-11-20 19:51:00
3:51 PM,43.0,28.0,56,30.17,10.0,Calm,Calm,-,N/A,,Mostly Cloudy,0,2012-11-20 20:51:00
4:51 PM,42.1,28.0,58,30.17,10.0,Calm,Calm,-,N/A,,Overcast,0,2012-11-20 21:51:00
5:51 PM,36.0,28.9,76,30.17,10.0,Calm,Calm,-,N/A,,Mostly Cloudy,0,2012-11-20 22:51:00
6:51 PM,35.1,28.9,78,30.17,10.0,Calm,Calm,-,N/A,,Overcast,0,2012-11-20 23:51:00
7:51 PM,35.1,28.9,78,30.18,10.0,Calm,Calm,-,N/A,,Overcast,0,2012-11-21 00:51:00
8:51 PM,35.1,28.9,78,30.19,10.0,Calm,Calm,-,N/A,,Overcast,0,2012-11-21 01:51:00
9:51 PM,36.0,28.9,76,30.19,10.0,Calm,Calm,-,N/A,,Overcast,0,2012-11-21 02:51:00
10:51 PM,36.0,28.9,76,30.19,10.0,Calm,Calm,-,N/A,,Overcast,0,2012-11-21 03:51:00
11:51 PM,33.1,28.9,85,30.19,10.0,Calm,Calm,-,N/A,,Overcast,0,2012-11-21 04:51:00